This demonstration page uses our WeatherBlox Daily Observations layout. Learn more.

Left ArrowRight Arrow

Hourly Observations for March 22, 2019

Temp ( °F °C ) Dew Point ( °F °C ) Humidity (%) Winds ( mph kmh ) Pressure ( in mb ) Visibility ( mi km ) Precip ( " mm )
12:57 am 00:57 Clear 38 3.3 34 1.1 86 86 Calm 30.19 1022 10 16 0.00 0.00
1:57 am 01:57 Clear 36 2.2 33 0.6 89 89 ENE 7 11 30.19 1022 10 16 0.00 0.00
2:57 am 02:57 Clear 38 3.3 34 1.1 86 86 Calm 30.19 1022 10 16 0.00 0.00
3:57 am 03:57 Clear 37 2.8 32 0 82 82 Calm 30.17 1022 10 16 0.00 0.00
4:57 am 04:57 Clear 36 2.2 33 0.6 89 89 Calm 30.16 1021 10 16 0.00 0.00
5:57 am 05:57 Clear 33 0.6 30 -1.1 89 89 Calm 30.16 1022 10 16 0.00 0.00
6:57 am 06:57 Clear 31 -0.6 30 -1.1 96 96 E 10 17 30.19 1022 10 16 0.00 0.00
7:57 am 07:57 Sunny 33 0.6 31 -0.6 92 92 ENE 8 13 30.20 1023 10 16 0.00 0.00
8:57 am 08:57 Sunny 37 2.8 33 0.6 86 86 E 8 13 30.21 1023 10 16 0.00 0.00
9:57 am 09:57 Sunny 42 5.6 36 2.2 79 79 E 9 15 30.20 1023 10 16 0.00 0.00
10:57 am 10:57 Sunny 49 9.4 36 2.2 61 61 SE 9 15 30.21 1023 10 16 0.00 0.00
11:57 am 11:57 Sunny 54 12.2 37 2.8 53 53 ESE 12 19 30.19 1022 10 16 0.00 0.00
12:57 pm 12:57 Mostly Sunny 57 13.9 36 2.2 45 45 SSE 16 26 30.18 1022 10 16 0.00 0.00
1:57 pm 13:57 Sunny 58 14.4 37 2.8 46 46 SSE 14 22 30.15 1021 10 16 0.00 0.00
2:57 pm 14:57 Sunny 58 14.4 36 2.2 44 44 SSE 15 24 30.13 1020 10 16 0.00 0.00
3:57 pm 15:57 Sunny 59 15 34 1.1 39 39 SE 12 19 30.10 1019 10 16 0.00 0.00
4:57 pm 16:57 Sunny 57 13.9 36 2.2 45 45 ESE 13 20 30.09 1019 10 16 0.00 0.00
5:57 pm 17:57 Partly Cloudy 57 13.9 37 2.8 47 47 ESE 10 17 30.08 1019 10 16 0.00 0.00
6:57 pm 18:57 Sunny 55 12.8 35 1.7 47 47 ESE 12 19 30.07 1018 10 16 0.00 0.00
7:57 pm 19:57 Clear 50 10 38 3.3 63 63 E 9 15 30.08 1019 10 16 0.00 0.00
8:57 pm 20:57 Cloudy 48 8.9 37 2.8 66 66 SE 6 9 30.10 1019 10 16 0.00 0.00
9:57 pm 21:57 Cloudy 47 8.3 37 2.8 69 69 SE 7 11 30.10 1019 10 16 0.00 0.00
10:57 pm 22:57 Cloudy 45 7.2 37 2.8 74 74 ESE 6 9 30.09 1019 10 16 0.00 0.00
11:57 pm 23:57 Cloudy with Light Rain 46 7.8 39 3.9 77 77 W 3 6 30.07 1018 10 16 0.00 0.03

Powered by AerisWeather